[[{"header":{"parameterUnit":"m.s-1","parameterCategory":1,"la1":30.2991,"la2":30.254,"lo1":-89.0895,"lo2":-89.0444,"dy":0.0017,"dx":0.0017,"nx":28,"ny":28,"refTime":"2023-07-20T09:00:00:Z","depth":0,"parameterNumber":2,"parameterNumberName":"U-component_of_WINDS"},"data":[0,0,0,0,0,0,0,0,0,0,0,0,0,0,0,0,0,0,0,0,0,0,0,0,0,0,0,0,0,0,0,0,0,0,0,0,0,0,0,0,0,0,0,0,0,0,0,0,0,0,0,0,0,0,0,0,0,0,0.3748,0.375,0,0.3909,0.3911,0.3913,0.3988,0.3988,0.3988,0.3988,0.4154,0.4158,0.4163,0,0,0,0,0,0,0,0,0,0,0,0,0,0.3503,0.3507,0.3748,0.375,0.3752,0.3909,0.3911,0.3913,0.3988,0.3988,0.3988,0.3988,0.4152,0.4157,0.4163,0,0,0,0,0,0,0,0,0,0,0,0,0,0.3631,0.3509,0.3747,0.3808,0.3815,0.3909,0.3911,0.3914,0.3988,0.3988,0.3988,0.3987,0.415,0.4157,0.4164,0.4209,0,0,0.4184,0.4187,0,0,0,0,0,0,0,0,0.3624,0.364,0.3797,0.3804,0.3812,0.3928,0.3886,0.4013,0.3988,0.3922,0.3988,0.3987,0.4079,0.4092,0.4122,0.4217,0.4224,0.4185,0.4189,0.4192,0.4194,0,0,0,0,0,0,0,0.3615,0.3634,0.3812,0.3799,0.3808,0.3827,0.3845,0.391,0.4,0.3928,0.3934,0.3952,0.4083,0.4115,0.4127,0.4227,0.4185,0.4191,0.4195,0.4198,0.4367,0.4367,0,0,0,0,0,0,0.3596,0.3626,0.3807,0.3817,0.3716,0.3831,0.3851,0.3891,0.3999,0.4015,0.3952,0.3955,0.4104,0.4119,0.4133,0.4194,0.4192,0.4198,0.4202,0.4367,0.4367,0.4368,0,0,0,0,0,0,0.3591,0.3612,0.38,0.3723,0.3748,0.3836,0.388,0.3894,0.3927,0.4017,0.4034,0.3969,0.4104,0.4123,0.419,0.42,0.4202,0.4208,0.4366,0.4367,0.4367,0.4315,0,0,0,0,0,0,0.3583,0.3609,0.3628,0.3723,0.3752,0.3854,0.388,0.3898,0.3939,0.3944,0.4037,0.4053,0.4106,0.4179,0.4196,0.421,0.4213,0.4366,0.4366,0.4367,0.4316,0.4314,0.4312,0,0,0,0,0,0.3574,0.3607,0.3628,0.365,0.3777,0.3855,0.3871,0.3932,0.3939,0.3958,0.4016,0.405,0.4196,0.4185,0.4205,0.4221,0.4365,0.4366,0.4367,0.4317,0.4314,0.4312,0,0,0,0,0,0,0.3511,0.3621,0.3646,0.371,0.3772,0.3867,0.3893,0.3927,0.3988,0.3991,0.4063,0.4083,0.4143,0.4189,0.4175,0.4271,0.4284,0.4289,0.4239,0.4237,0.4235,0.4223,0.4219,0,0,0,0,0,0.3505,0.3559,0.3651,0.3699,0.3729,0.3805,0.3841,0.3882,0.395,0.3977,0.404,0.4104,0.4165,0.4203,0.4264,0.4323,0.4344,0.4343,0.4341,0.4339,0.4343,0.4377,0.4378,0.4371,0.4371,0.4371,0,0,0.3492,0.3558,0.3588,0.3688,0.3741,0.3795,0.3827,0.3883,0.3924,0.3986,0.4052,0.41,0.4177,0.424,0.427,0.4279,0.4349,0.434,0.4337,0.4343,0.4378,0.4378,0.4379,0.4371,0.4371,0.4371,0,0,0.3497,0.3552,0.3598,0.365,0.373,0.3781,0.3791,0.3881,0.3916,0.3983,0.403,0.408,0.4183,0.4235,0.4276,0.4298,0.4332,0.4316,0.4305,0.4337,0.4338,0.4339,0.4347,0.4349,0.4319,0.4319,0.4319,0,0.3471,0.3555,0.3617,0.3671,0.3713,0.377,0.3817,0.3865,0.396,0.3988,0.3997,0.4126,0.4182,0.4258,0.4263,0.4294,0.4308,0.4306,0.4333,0.4334,0.4336,0.4345,0.4348,0.4317,0.4317,0.4317,0.4317,0,0.3519,0.3576,0.3603,0.3694,0.3739,0.3789,0.3858,0.3897,0.3933,0.3982,0.405,0.4119,0.4194,0.4215,0.4251,0.4296,0.4299,0.4319,0.4333,0.4333,0.4342,0.4346,0.4313,0.4314,0.4315,0.4315,0,0,0.3489,0.3613,0.3622,0.3664,0.3756,0.3801,0.3853,0.3926,0.3958,0.4021,0.4067,0.4152,0.4171,0.4216,0.4258,0.4287,0.43,0.4304,0.4307,0.4301,0.4354,0.4338,0.4341,0.4322,0.4323,0.4324,0.4347,0,0.3507,0.3603,0.366,0.3733,0.3786,0.3841,0.3886,0.3947,0.3994,0.4046,0.4098,0.4157,0.4177,0.4205,0.4236,0.4292,0.4312,0.4291,0.4366,0.4368,0.4346,0.4346,0.4331,0.435,0.4351,0.4352,0.4353,0,0.3541,0.3603,0.3681,0.3766,0.3791,0.383,0.3902,0.3951,0.4021,0.4053,0.4103,0.4145,0.4202,0.4211,0.429,0.4274,0.4308,0.434,0.4342,0.4352,0.4361,0.4357,0.4357,0.436,0.4359,0.4358,0.4358,0,0.3512,0.3615,0.3675,0.3709,0.381,0.3836,0.388,0.3949,0.399,0.4052,0.4079,0.4146,0.4184,0.4235,0.4295,0.4296,0.4367,0.4381,0.4396,0.4394,0.441,0.4408,0.4416,0.443,0.443,0.443,0.443,0,0.3527,0.3572,0.3663,0.37,0.3753,0.3817,0.3867,0.3915,0.3976,0.4023,0.4074,0.4117,0.4192,0.4244,0.4291,0.4349,0.4365,0.4393,0.4405,0.4389,0.4385,0.4413,0.4413,0.443,0.443,0.443,0.443,0,0.3504,0.3567,0.3636,0.3725,0.3749,0.3783,0.386,0.3898,0.3947,0.4005,0.4023,0.41,0.4163,0.4227,0.4313,0.4345,0.4402,0.4418,0.4378,0.4385,0.4396,0.4395,0.4423,0.443,0.4437,0.4437,0.4437,0,0.3509,0.3546,0.3639,0.3674,0.3716,0.3771,0.3812,0.3877,0.3918,0.4,0.4027,0.4094,0.4152,0.4251,0.4315,0.4381,0.4399,0.4404,0.4409,0.4392,0.44,0.4397,0.4401,0.4402,0.4402,0.4401,0.4401,0,0.3512,0.3541,0.3599,0.3667,0.3714,0.3771,0.383,0.3855,0.3931,0.3974,0.404,0.4084,0.4171,0.4238,0.4311,0.4355,0.4391,0.4399,0.4406,0.439,0.4366,0.438,0.4373,0.4398,0.4398,0.4399,0.4399,0.4399,0.3505,0.3539,0.361,0.3672,0.3723,0.3776,0.3815,0.3869,0.3925,0.4001,0.4036,0.4101,0.417,0.4271,0.4315,0.4367,0.4377,0.4387,0.439,0.4391,0.4388,0.4356,0.4381,0.4381,0.4381,0.4381,0.4381,0,0.3511,0.3559,0.3615,0.3695,0.3743,0.3772,0.3838,0.3877,0.3934,0.3995,0.405,0.4125,0.4189,0.4257,0.4325,0.4354,0.4372,0.4369,0.4368,0.4378,0.4375,0.4363,0.4354,0.4354,0.4354,0.4354,0.4354,0.4354,0.3519,0.358,0.3617,0.3702,0.375,0.3815,0.385,0.3899,0.3948,0.4029,0.4083,0.4126,0.419,0.4263,0.4323,0.4341,0.4364,0.4357,0.438,0.4376,0.4378,0.438,0.4369,0.4361,0.4361,0.4379,0.4379,0.4379]},{"header":{"parameterUnit":"m.s-1","parameterCategory":1,"la1":30.2991,"la2":30.254,"lo1":-89.0895,"lo2":-89.0444,"dy":0.0017,"dx":0.0017,"nx":28,"ny":28,"refTime":"2023-07-20T09:00:00:Z","depth":0,"parameterNumber":3,"parameterNumberName":"V-component_of_WINDS"},"data":[0,0,0,0,0,0,0,0,0,0,0,0,0,0,0,0,0,0,0,0,0,0,0,0,0,0,0,0,0,0,0,0,0,0,0,0,0,0,0,0,0,0,0,0,0,0,0,0,0,0,0,0,0,0,0,0,0,0,4.4567,4.4566,0,4.4507,4.4507,4.4506,4.4431,4.443,4.4429,4.4427,4.4364,4.4363,4.4363,0,0,0,0,0,0,0,0,0,0,0,0,0,4.4613,4.4613,4.4567,4.4566,4.4565,4.4508,4.4507,4.4506,4.4431,4.443,4.4428,4.4427,4.4364,4.4363,4.4363,0,0,0,0,0,0,0,0,0,0,0,0,0,4.4577,4.4612,4.4567,4.4521,4.4516,4.4508,4.4507,4.4506,4.4431,4.443,4.4428,4.4426,4.4364,4.4363,4.4362,4.4393,0,0,4.436,4.4359,0,0,0,0,0,0,0,0,4.4579,4.4576,4.4529,4.4524,4.4519,4.4475,4.45,4.4468,4.4432,4.4464,4.4427,4.4425,4.4402,4.4398,4.4391,4.439,4.4387,4.436,4.4359,4.4359,4.4359,0,0,0,0,0,0,0,4.4582,4.4578,4.4543,4.4528,4.4522,4.4503,4.4496,4.4493,4.4443,4.4461,4.4455,4.4449,4.4399,4.4392,4.4389,4.4386,4.436,4.4359,4.4358,4.4358,4.4407,4.4409,0,0,0,0,0,0,4.4592,4.458,4.4545,4.4541,4.4546,4.4503,4.4495,4.4491,4.4443,4.4434,4.4451,4.4446,4.4394,4.439,4.4386,4.4418,4.4359,4.4358,4.4357,4.4405,4.4408,4.4409,0,0,0,0,0,0,4.4593,4.4589,4.4547,4.4559,4.4553,4.4505,4.45,4.4491,4.4483,4.4436,4.4426,4.4453,4.4392,4.4387,4.4392,4.4415,4.4358,4.4357,4.4403,4.4406,4.4409,4.4484,0,0,0,0,0,0,4.4595,4.459,4.4602,4.456,4.4552,4.4556,4.4501,4.4491,4.4482,4.4475,4.4435,4.4427,4.4391,4.4394,4.4391,4.4413,4.4356,4.4401,4.4404,4.4408,4.4479,4.4489,4.4497,0,0,0,0,0,4.4596,4.4625,4.4603,4.4599,4.4566,4.4557,4.4552,4.4511,4.4484,4.4495,4.4465,4.4428,4.4413,4.4395,4.4391,4.4413,4.4399,4.4403,4.4407,4.4475,4.4487,4.4497,0,0,0,0,0,0,4.4669,4.4618,4.4594,4.4609,4.4588,4.4544,4.4557,4.4525,4.451,4.4504,4.4453,4.4444,4.4455,4.4434,4.4415,4.444,4.4401,4.4404,4.4453,4.4464,4.4473,4.4477,4.4355,0,0,0,0,0,4.4688,4.4685,4.464,4.4659,4.4649,4.4605,4.46,4.457,4.4545,4.4536,4.4506,4.4483,4.4473,4.4467,4.4455,4.4475,4.4465,4.4489,4.4498,4.4505,4.4509,4.4518,4.4527,4.4423,4.4423,4.4423,0,0,4.4724,4.4696,4.4698,4.4673,4.4653,4.4651,4.4598,4.4598,4.4596,4.4535,4.4538,4.4516,4.4486,4.4499,4.4503,4.4482,4.4536,4.4511,4.4517,4.4516,4.4523,4.4533,4.4542,4.4426,4.4425,4.4425,0,0,4.4791,4.477,4.4782,4.4764,4.4735,4.4705,4.4709,4.467,4.4652,4.4655,4.4609,4.4605,4.4589,4.457,4.4558,4.4618,4.4583,4.4616,4.4663,4.4672,4.468,4.4687,4.4708,4.4716,4.462,4.462,4.462,0,4.484,4.4836,4.4793,4.4796,4.4786,4.4732,4.4744,4.4728,4.4696,4.469,4.4668,4.4647,4.4623,4.463,4.4645,4.4637,4.4639,4.462,4.4683,4.4689,4.4695,4.4714,4.4723,4.4624,4.4623,4.4623,4.4623,0,4.4898,4.4896,4.491,4.4882,4.4873,4.4881,4.4838,4.4835,4.4806,4.4778,4.4781,4.4751,4.4732,4.4732,4.4703,4.4735,4.4723,4.4692,4.4652,4.471,4.4727,4.4734,4.463,4.4628,4.4627,4.4626,0,0,4.5009,4.4957,4.4963,4.4949,4.4913,4.491,4.4915,4.4898,4.4896,4.4876,4.4878,4.4866,4.4838,4.4824,4.4793,4.4801,4.485,4.4769,4.4767,4.4785,4.4883,4.4906,4.4915,4.4827,4.4828,4.4829,4.4885,0,4.5068,4.5075,4.5036,4.5052,4.505,4.4999,4.5003,4.4981,4.4956,4.4949,4.492,4.4913,4.4876,4.4867,4.4873,4.4843,4.4869,4.4838,4.4827,4.4828,4.4836,4.4924,4.4949,4.5003,4.4891,4.4893,4.4893,0,4.5138,4.5123,4.514,4.5103,4.5101,4.5105,4.5086,4.5081,4.5055,4.5035,4.5021,4.4985,4.4987,4.4949,4.4949,4.493,4.4923,4.4907,4.4908,4.4905,4.4864,4.4923,4.5019,4.5028,4.4904,4.4903,4.4902,0,4.5217,4.5201,4.5208,4.5198,4.5156,4.516,4.5143,4.5115,4.5107,4.509,4.5084,4.5067,4.5058,4.5045,4.5005,4.4981,4.501,4.4969,4.4994,4.4995,4.5002,4.5002,4.5098,4.4998,4.4998,4.4998,4.4998,0,4.5287,4.5299,4.5243,4.5248,4.526,4.5215,4.5228,4.5205,4.518,4.5179,4.5134,4.5133,4.5081,4.5074,4.5043,4.5048,4.5044,4.5028,4.502,4.5032,4.5034,4.5027,4.5022,4.5,4.5,4.4999,4.4999,0,4.5377,4.534,4.5345,4.5305,4.5295,4.5305,4.527,4.5273,4.5245,4.5244,4.5241,4.5197,4.5187,4.5146,4.5126,4.5104,4.512,4.5103,4.5129,4.5124,4.515,4.5149,4.5245,4.5255,4.515,4.5151,4.5152,0,4.5424,4.5432,4.5393,4.539,4.5374,4.5369,4.5361,4.5317,4.531,4.5281,4.5287,4.5273,4.526,4.5246,4.5212,4.5196,4.5179,4.5213,4.5176,4.5188,4.5179,4.5179,4.5179,4.5222,4.5223,4.5224,4.5225,0,4.5512,4.5493,4.5484,4.5468,4.546,4.5446,4.5428,4.5428,4.5378,4.5373,4.5363,4.5353,4.5333,4.532,4.5298,4.5278,4.5243,4.5237,4.5242,4.5255,4.5269,4.5262,4.5151,4.5235,4.5234,4.5233,4.5233,4.5232,4.5581,4.5586,4.556,4.5551,4.5533,4.5518,4.5518,4.5491,4.5482,4.5463,4.5437,4.543,4.5403,4.5371,4.5354,4.5347,4.5328,4.5335,4.5337,4.5339,4.5345,4.5271,4.5343,4.5343,4.5343,4.5342,4.5342,0,4.5666,4.5647,4.5639,4.5617,4.561,4.5579,4.5558,4.5553,4.5548,4.5527,4.5515,4.5503,4.549,4.5455,4.5438,4.544,4.5423,4.5437,4.5436,4.5432,4.5364,4.5361,4.5451,4.5451,4.5451,4.5451,4.5451,4.5451,4.571,4.5717,4.5695,4.5693,4.5673,4.5667,4.5657,4.5643,4.5625,4.5615,4.5604,4.5582,4.5554,4.5535,4.5522,4.5511,4.5507,4.5526,4.5511,4.5447,4.5437,4.5427,4.5424,4.5526,4.5526,4.558,4.558,4.5581]}]]